Powrót do katalogu

STARLINK-11682

AktywnyŁącznośćVLEO
NORAD 64234·PAYLOAD·🇺🇸 United States

Wystrzelony Jun 3, 2025 z Cape Canaveral Space Force Station

Loading…

Następne Przeloty (najbliższe 24 godziny)

TLE

ŚwieżeSource: CelesTrak SupGP

Epoka: Sep 14, 2026, 21:26 UTC

1 64234C 25119B   26257.89354167 -.00039355  00000+0 -30580-3 0  2574
2 64234  43.0001 149.1651 0001491 264.1692 177.8827 15.70847834    19

Śledź STARLINK-11682 w czasie rzeczywistym z AllMySat

Download on the App Store